 3) [jamsat-bb:5336] 初QSOとドップラーシフトへの対応の質問 においてJI1IZR局の
   眞田 正弘氏が投稿されていましたので転載させて頂きました.

YRF02414> Subject: [jamsat-bb:5336] 初QSOとドップラーシフトへの対応の質問
YRF02414> 5月16日、JH2ESW局とO-29でのQSOできました。
YRF02414> 出力20W144MHz3エレUp430MHz5エレでもなんとか
YRF02414> できるものですね。その後もJA1XTF(途中でこちら
YRF02414> の信号がとれなくなってしまったようですが、こちら
YRF02414> には強力に入感していました)、JN1GKZ、7M4DUO
YRF02414> の各局とQSOできました。ありがとうございました。
YRF02414> しかし、衛星の追尾はむずかしいです。おそらく、
YRF02414> 偏波面の変動のため、当局の水平偏波のアンテナ
YRF02414> では、強弱があって信号をとらえにくいのかと思いま
YRF02414> す。
YRF02414> また、本日(5月28日)の20:00台のSO-35のパスでは
YRF02414> ハンディと手持ちのホイップで皆さんのQSOを良く
YRF02414> 聞くことができました。
YRF02414> SO-35にも、そのうち挑戦するつもりです。
YRF02414> ところで、皆さんはQSOのときのドップラー効果に
YRF02414> 対する方法は、受信周波数の調整をしますか、
YRF02414> それとも送信周波数の調整をしますか。
YRF02414> サテライトハンドブックでは、送信周波数の調整を
YRF02414> するとあったのですが、上記のQSOでは受信周波
YRF02414> 数を調整されているように思えたので。
YRF02414> 過去のメーリングリスト(過去3カ月分くらい)を探して
YRF02414> みたのですが、探し方が悪いのか見つかりませんで
YRF02414> した。もしかすると、以前に話題になったのかもしれ
YRF02414> ませんが、初心者の質問としてアドバイスください。
YRF02414> 2000年5月28日
YRF02414> 眞田正弘(de JI1IZR)
YRF02414> ji1izr@jamsat.or.jp
 ====================================================================================
   4)JARL のホームページに運用予定が記載されていましたのでご紹介します.
       ( http://www.jarl.or.jp/Japanese/3_Fuji/new/uy.htm )

        ■ ふじ3号/FOー29/JAS-2 ■  
   
     *** 運用予定について ***

 ☆☆ 待望のデジトーカ運用を5日間運用開始 ☆☆

  5月08日 〜 6月07日 アナログ系運用
※  6月08日 〜 6月12日 デジトーカ運用
  6月13日 〜 7月02日  アナログ系運用 

  ※関西ハムフェスティバルに併せて,実施いたします。
  JAS−2ベリカードを希望の方へ
  「受信レポート」と住所,氏名,コールサインを明記のうえ80円切手を貼った返信用封筒を
  下記のところまでお送りください.
            〒170−8073 東京都豊島区巣鴨1−14−5
            (社)日本アマチュア無線連盟 技術研究所技術課
               「JAS−2ベリカード希望」と記入してください。
   「受信レポート」の記入例
    1.日   時
    2.場   所
    3.受信強度
    4.送信内容
    5.使用した機種名
    6.アンテナ
    7.その他(ご意見等)
   注)6.アンテナは「型番」ではなく,形式を記入してくだい。
       例:「何エレの八木アンテナ」,「何段のGPアンテナ」・・・。
     7.ご意見,ご感想等をお書きください。また,受信レポートの書式はA4版の
             用紙に記入してください。

  デジトーカの受信周波数は435.91MHzです。ハンディー機での受信も可能ですので,
  ぜひトライしてください。

-----------------------    FO−20(JAS-1b)道要素   -------------------------
  5)
  ■ 軌道要素1 :出典はFO-29「ふじ3号」に同じ.
  
  FO-20
 1 20480U 90013C   00146.85065156 -.00000004  00000-0  54478-4 0  2286
 2 20480  99.0504 281.4405 0540989 105.8164 260.3245 12.83273803482415
 
  ■ 軌道要素2 :出典はFO−29「ふじ3号」に同じ.
               
  Satellite: FO-20
 Catalog number: 20480
 Epoch time:      00146.85065156
 Element set:     228
 Inclination:       99.0504 deg
 RA of node:       281.4405 deg
 Eccentricity:    0.0540989
 Arg of perigee:   105.8164 deg
 Mean anomaly:     260.3245 deg
 Mean motion:   12.83273803 rev/day
 Decay rate:       -4.0e-08 rev/day^2
 Epoch rev:           48241
 Checksum:              281

 --------------------------------------------------------------------------------
 
         ■ ふじ2号/FO−20/JAS-1b ■      
            
          「ふじ2号」 現況                                                                                  
             
   JAS-1b(ふじ2号)のCWテレメトリ信号に,1997年10月12日12時(JST)の
 日本上空通過時,3桁の数字が繰り返されるはずが3個の長音の繰り返しとなっているという
 異常が発見されました。この不具合は次の通過時からは回復していましたが13日15時20分の
 通過時に再び観測されました。現在はA0の送信が続いています。衛星のアナログ系中継モード
 動作は異常が無く,正常時のテレメトリ内容からは衛星の動作に異常は認められません。従って,
 直ちに衛星のミッションに影響することは無いと予想されますので,当面はアナログ系中継
 モードを継続します。衛星は既に打ち上げてから7年8ヶ月を経ておりますので,今後は監視を
 強化する予定です。アマチュア各位のレポートをお待ちします。
 -------------------------------------------------------------------------------- 
  1997年10月14日 00時35分 確認のテレメトリ音 151 KB (A0) 
  1997年10月14日 11時10分 確認のテレメトリ音 216 KB (異常キーイング) 

  以上 JARLのホ−ムページの http://www.jarl.or.jp/Japanese/3_Fuji/new/fuji.htm

===================== FO-20 ふじ2号 のテレメトリ観測結果 ====================

   6月3日(土)の14:15(JST)のパスの観測結果では以前観測した結果よりも変動のない
 単一周波数でドップラー効果で周波数がずれていくのみの状態に戻っておりました。
                                         
   =============   JAS-2 (ふじ3号)と現在までの情報   ===========
  
  A.電話によるふじ3号の運用情報
      社団法人日本アマチュア連盟によるサービス
           TEL .   03− 3942 − 1000
  B.アマチュア無線FAXサービス
      JARLによるふじ3号の軌道情報(オービットカレンダー)
         FAX No.  03− 3233 −0055
  C.WWWブラウザで情報を簡単に見れる人のためにJAS−2
     ふじ3号の衛星としての運用されるまでの名前)の概要、打ち上げ
     までの状況、運用中における状況を説明したホームページを紹介し
     ておきます.
     社団法人日本アマチュア無線連盟(JARL)のホームページ

          http://www.jarl.or.jp/Japanese/3_Fuji/jasmenu.htm
 
     宇宙開発事業団(NASDA)ホームページ 
          http://www.nasda.go.jp/
         打上げ衛星 :地球観測プラットフォーム技術衛星(ADEOS) 
                       アマチュア衛星3号(JAS-2)
          http://yyy.tksc.nasda.go.jp/Home/Press/Press-j/jas-2_j.html        

  D.JAMSATによる軌道情報の活用
        JAMSATのホームページまたはjamsat−kepsの軌道要素より
      衛星の軌道情報を得る.
     JAMSATホームページ
               URL    http://www.jamsat.or.jp
       上記ホームページでは各地で行われるアマチュア通信衛星に関する
      ミューティングのお知らせや世界のアマチュア衛星に関する情報が
      満載されています.
 ========================================================================  
     JAMSATのメンバーのご協力によりJH6MME(高山 秀造)が
    執筆・編集を担当しております.ご指摘の意見、疑問やこのようにしたら
    というアイデアがありましたら小さなことでもかまいませんので気軽に下
    記アドレスまでご連絡ください.jamsat−newsからjas2
    infoへの転載をJH4PHW局坂井さんに担当して頂いております.  
                  E-mail : jh6mme@jamsat.or.jp : jh4phw@jamsat.or.jp
 ===============================   END  ===============================